This is the latest recevied weather packets stored in our database for station/object VA2DG-13. If no packets are shown the sender has not sent any weather packets the latest 10 day(s).
| Time | Temp. | Humidity | Pressure | Rain* | Wind** | Luminosity | Snow |
|---|---|---|---|---|---|---|---|
| 1777670411 | 11.67° C | 34% | 1008.6 hPa | 0 mm | - | - | - |
| 1777669810 | 12.22° C | 34% | 1008.4 hPa | 0 mm | - | - | - |
| 1777668010 | 12.78° C | 33% | 1008.6 hPa | 0 mm | - | - | - |
| 1777667710 | 13.33° C | 33% | 1008.6 hPa | 0 mm | - | - | - |
| 1777667411 | 12.78° C | 34% | 1008.6 hPa | 0 mm | - | - | - |
| 1777664411 | 12.22° C | 37% | 1008.6 hPa | 0 mm | - | - | - |
| 1777663211 | 11.67° C | 36% | 1008.8 hPa | 0 mm | - | - | - |
| 1777662910 | 11.67° C | 35% | 1008.9 hPa | 0 mm | - | - | - |
| 1777660510 | 12.22° C | 38% | 1009.1 hPa | 0 mm | - | - | - |
| 1777656010 | 10.56° C | 41% | 1009.4 hPa | 0 mm | - | - | - |
| 1777655709 | 10.56° C | 41% | 1009.4 hPa | 0 mm | - | - | - |
| 1777653310 | 9.44° C | 46% | 1009.7 hPa | 0 mm | - | - | - |
| 1777651210 | 8.33° C | 48% | 1010.1 hPa | 0 mm | - | - | - |
| 1777648211 | 8.33° C | 48% | 1010.1 hPa | 0 mm | - | - | - |
| 1777646710 | 7.78° C | 52% | 1010 hPa | 0 mm | - | - | - |
| 1777644010 | 7.22° C | 52% | 1010.1 hPa | 0 mm | - | - | - |
| 1777643109 | 6.67° C | 54% | 1010 hPa | 0 mm | - | - | - |
| 1777639509 | 6.11° C | 61% | 1010.2 hPa | 0 mm | - | - | - |
| 1777638309 | 5.56° C | 65% | 1010.1 hPa | 0 mm | - | - | - |
| 1777636810 | 5° C | 69% | 1010.3 hPa | 0 mm | - | - | - |
| 1777636509 | 5° C | 70% | 1010 hPa | 0 mm | - | - | - |
| 1777635610 | 5° C | 75% | 1010.1 hPa | 0 mm | - | - | - |
| 1777633510 | 3.33° C | 81% | 1010.1 hPa | 0 mm | - | - | - |
| 1777632309 | 2.22° C | 81% | 1009.7 hPa | 0 mm | - | - | - |
| 1777628110 | 1.67° C | 79% | 1009.3 hPa | 0 mm | - | - | - |
* Rain latest hour (hover to see other rain measurements)
** Current wind speed in m/s (hover to see current wind gust speed)